#timestamp,LO_Frequency,Hit,StdDev 
1576101615.2,286046999.3,P
1576101635.1,286046996.5,P
1576101636.0,286046996.5,N
1576101655.8,286046996.9,N
1576101675.7,286046999.2,N
1576101695.5,286046998.9,N
1576101715.3,286047001.2,N
1576101735.2,286047000.0,N
1576101755.0,286046999.0,N
1576101755.9,286046999.0,N
1576101775.7,286046996.9,N
1576101795.6,286046997.3,N
1576101815.4,286046996.5,N
1576101835.3,286046999.2,N
1576101855.1,286046998.2,N
1576101856.0,286046998.2,N
1576101875.8,286047000.9,N
1576101895.7,286046998.1,N
1576101915.5,286046998.5,N
1576101935.3,286046998.2,N
1576101955.2,286046998.5,N
1576101975.0,286046999.6,N
1576101975.9,286046999.6,N
1576101995.8,286046998.1,N
1576102015.6,286047000.7,N
1576102035.4,286046999.1,N
1576102055.3,286046996.8,N
1576102075.1,286046999.2,N
1576102095.8,286046998.1,N
1576102115.7,286047000.6,N
1576102135.5,286047002.6,N
1576102155.4,286046999.9,N
1576102175.2,286046999.7,N
1576102195.0,286047000.2,N
1576102195.9,286047000.2,N
1576102215.8,286047000.8,N
1576102235.6,286046998.1,N
1576102255.4,286046999.1,N
1576102275.3,286046998.2,N
1576102295.1,286047002.3,N
1576102315.9,286047001.0,N
1576102335.7,286047002.0,N
1576102355.5,286046998.1,N
1576102375.4,286047001.1,N
1576102395.2,286046998.4,N
1576102415.1,286046998.4,N
1576102416.0,286046998.4,N
1576102435.8,286047000.9,N
1576102455.6,286046998.8,N
1576102475.5,286047001.1,N
1576102495.3,286047002.4,N
1576102515.1,286047001.0,N
1576102535.9,286047000.5,N
1576102555.7,286047000.4,N
1576102575.6,286047000.8,N
1576102595.4,286046998.1,N
1576102615.2,286047000.9,N
1576102635.1,286047002.6,N
1576102636.0,286047002.6,N
1576102655.8,286047000.1,N
1576102675.7,286047001.6,N
1576102695.5,286047003.9,N
1576102715.3,286047001.8,N
1576102735.2,286047002.0,N
1576102755.0,286047002.3,N
1576102755.9,286047002.3,N
1576102775.8,286046999.7,N
1576102795.6,286047003.1,N
1576102815.4,286047004.4,N
1576102835.3,286047002.2,N
1576102855.1,286047001.7,N
1576102875.8,286047000.3,N
1576102895.7,286047000.9,N
1576102915.5,286047000.0,N
1576102935.4,286046999.8,N
1576102955.2,286047002.4,N
1576102975.0,286047000.6,N
1576102975.9,286047000.6,N
1576102995.8,286047000.0,N
1576103015.6,286046998.3,N
1576103035.4,286047000.6,N
1576103055.3,286047000.5,N
1576103075.1,286046998.4,N
1576103095.9,286046998.6,N
1576103115.7,286046996.7,N
1576103135.5,286046999.7,N
1576103155.4,286046999.7,N
1576103175.2,286046999.9,N
1576103195.0,286047000.2,N
1576103195.9,286047000.2,N
1576103215.8,286046999.5,N
1576103235.6,286047001.2,N
1576103255.5,286047002.1,N
1576103275.3,286047001.5,N
1576103295.1,286047001.8,N
1576103315.9,286047001.8,N
1576103335.7,286047002.2,N
1576103355.5,286047001.3,N
1576103375.4,286047001.7,N
1576103395.2,286047002.1,N
1576103415.1,286047000.9,N
1576103416.0,286047000.9,N
1576103435.8,286047001.2,N
1576103455.6,286047000.9,N
1576103475.5,286047002.8,N
1576103495.3,286047000.0,N
1576103515.1,286047002.5,N
1576103535.9,286046999.7,N
1576103555.7,286047002.4,N
1576103575.6,286047001.5,N
1576103595.4,286047003.5,N
1576103615.2,286047001.5,N
1576103635.1,286047002.7,N
1576103636.0,286047002.7,N
1576103655.8,286046999.8,N
1576103675.6,286047002.5,N
1576103695.5,286047002.4,N
1576103715.3,286047003.8,Y
1576103735.2,286047002.2,P
1576103755.9,286047001.6,P
1576103775.7,286046999.9,N
1576103795.6,286047002.3,N
1576103815.4,286047002.1,N
1576103835.3,286047000.2,N
1576103855.1,286047006.0,Y
1576103856.0,286047006.0,P
1576103875.8,286047006.0,N
1576103895.7,286047003.0,N
1576103915.5,286047003.5,N
1576103935.3,286047003.2,N
1576103955.2,286047004.0,N
1576103975.0,286047003.1,N
1576103975.9,286047003.1,N
1576103995.8,286047002.9,N
1576104015.6,286047004.8,Y
1576104035.4,286047000.2,P
1576104055.3,286047000.5,N
1576104075.1,286047000.5,N
1576104095.8,286047000.0,N
1576104115.7,286047000.2,N
1576104135.5,286047000.1,N
1576104155.4,286047000.1,N
1576104175.2,286047002.7,N
1576104195.0,286047002.1,N
1576104195.9,286047002.1,N
1576104215.8,286047002.0,N
1576104235.6,286046999.7,N
1576104255.4,286047000.5,N
1576104275.3,286047002.3,N
1576104295.1,286047001.6,N
1576104315.9,286047002.6,N
1576104335.7,286046999.8,N
1576104355.5,286047002.1,N
1576104375.4,286047000.9,N
1576104395.2,286047000.1,N
1576104415.0,286047000.2,N
1576104415.9,286047000.2,N
1576104435.8,286047004.2,Y
1576104455.6,286047005.1,P
1576104475.5,286047004.6,N
1576104495.3,286047006.0,P
1576104515.1,286047002.1,N
1576104535.9,286047001.2,N
1576104555.7,286046999.8,N
1576104575.5,286047000.9,N
1576104595.4,286046998.4,N
1576104615.2,286046999.3,N
1576104635.1,286046999.0,N
1576104636.0,286046999.0,N
1576104655.8,286046998.3,N
1576104675.6,286047001.0,N
1576104695.5,286047001.0,N
1576104715.3,286046996.5,N
1576104735.1,286046998.6,N
1576104755.9,286046999.3,N
1576104775.7,286046999.5,N
1576104795.6,286046999.5,N
1576104815.4,286046996.6,N
1576104835.2,286046998.7,N
1576104855.1,286046999.2,N
1576104856.0,286046999.2,N
1576104875.8,286046999.1,N
1576104895.6,286047001.0,N
1576104915.5,286046998.8,N
1576104935.3,286046999.2,N
1576104955.2,286046999.5,N
1576104975.9,286046997.6,N
1576104995.7,286046996.6,N
1576105015.6,286046995.3,N
1576105035.4,286046995.2,N
1576105055.2,286046995.4,N
1576105075.1,286046995.6,N
1576105076.0,286046995.6,N
1576105095.8,286046995.9,N
1576105115.7,286046997.5,N
1576105135.5,286046995.6,N
1576105155.3,286046996.2,N
1576105175.2,286046994.7,N
1576105195.0,286046992.4,Y
1576105195.9,286046992.4,P
